Location: ????????
(55.0559°N, 39.1270°E)
Time: 01:47:35
(UTC+00:00)

ACS3 Solar Sail - Pass Details

Date: 15 November 2025
Orbit: 888 x 1001 km, 97.3° (Epoch: 12 December)

Event Time Altitude Azimuth Distance (km) Brightness Sun altitude
Rises 00:28:13 0° 15° (NNE) 3,542 5.2 -37.5°
Reaches altitude 10° 00:30:41 10° 20° (NNE) 2,610 4.4 -37.2°
Enters shadow 00:34:28 39° 43° (NE) 1,367 2.8 -36.7°
